Home   Weather   Saint John   Past weeks

Flag for Canada Past Weather in Saint John, New Brunswick, Canada — Yesterday and Last 2 Weeks

Now
41 °F

Mostly cloudy.


Feels Like: 32 °F
Forecast: 42 / 52 °F
Wind: 17 mph from Southeast

Location: Saint John

Current Time: Apr 26, 2017 at 7:08:57 am

Latest Report: Apr 26, 2017 at 6:27 am


Visibility: 15 mi

Pressure: 30.23 "Hg

Humidity: 100%

Dew Point: 41 °F

Location of Saint JohnLocation

Past Weather in Saint John — Graph

°F

Saint John Temperature Yesterday

Maximum temperature yesterday: 57 °F (at 4:00 pm)
Minimum temperature yesterday: 27 °F (at 2:00 am)
Average temperature yesterday: 42 °F

High & Low Weather Summary for the Past Weeks

 TemperatureHumidityPressure
High63 °F (Apr 11, 2:00 pm)100% (Apr 11, 6:00 am)30.68 "Hg (Apr 11, 6:00 am)
Low19 °F (Apr 19, 7:00 am)12% (Apr 19, 3:00 pm)29.60 "Hg (Apr 17, 12:00 am)
Average41 °F78%30.16 "Hg
* Reported Apr 11 6:00 am — Apr 26 6:00 am, Saint John, Weather by CustomWeather, © 2017

Note: Actual official high and low records may vary slightly from our data, if they occured in-between our weather recording intervals... More about our weather records

Advertising

Saint John Weather History for the Previous 24 Hours

Scroll right to see more
 ConditionsComfort  
Time TempWeatherWind HumidityBarometerVisibility
6:00 am
Wed, Apr 26
41 °FMostly cloudy.16 mph100%30.24 "Hg15 mi
5:00 am39 °FLight rain. Fog.20 mph100%30.25 "Hg5 mi
4:00 am39 °FLight rain. Fog.15 mph93%30.28 "Hg5 mi
3:00 am43 °FLight rain. Mostly cloudy.15 mph66%30.30 "Hg15 mi
2:00 am45 °FLight rain. Mostly cloudy.16 mph49%30.32 "Hg15 mi
1:00 am45 °FMostly cloudy.15 mph46%30.35 "Hg15 mi
12:00 am46 °FOvercast.14 mph43%30.37 "Hg15 mi
11:00 pm
Tue, Apr 25
46 °FOvercast.15 mph40%30.38 "Hg15 mi
10:00 pm46 °FMostly cloudy.8 mph46%30.40 "Hg15 mi
9:00 pm48 °FOvercast.9 mph43%30.40 "Hg15 mi
8:00 pm50 °FOvercast.8 mph37%30.40 "Hg15 mi
7:00 pm54 °FMostly cloudy.8 mph35%30.41 "Hg15 mi
6:00 pm57 °FBroken clouds.10 mph33%30.40 "Hg15 mi
5:00 pm57 °FBroken clouds.8 mph33%30.40 "Hg15 mi
4:00 pm57 °FBroken clouds.10 mph29%30.42 "Hg15 mi
3:00 pm54 °FPartly sunny.8 mph28%30.45 "Hg15 mi
2:00 pm52 °FBroken clouds.13 mph28%30.46 "Hg15 mi
1:00 pm50 °FPartly sunny.10 mph30%30.48 "Hg15 mi
12:00 pm46 °FPartly sunny.14 mph34%30.49 "Hg15 mi
11:00 am46 °FPartly sunny.12 mph34%30.50 "Hg15 mi
10:00 am43 °FPartly sunny.13 mph36%30.50 "Hg15 mi
9:00 am41 °FPartly sunny.10 mph42%30.49 "Hg15 mi
8:00 am36 °FScattered clouds.5 mph60%30.46 "Hg15 mi
7:00 am32 °FScattered clouds.7 mph64%30.42 "Hg15 mi
Weather by CustomWeather, © 2017

See weather overviewHow to use our weather pages